Regional Weather Roundup
Issued by NWS

Home | Current Version | Previous Version | Text Only | Print | Product List | Glossary On
Versions: 1 2 3 4 5 6 7 8 9 10 11 12 13 14 15 16 17 18 19 20 21 22 23 24 25 26 27
000
ASUS42 KTBW 241810
RWRFL
FLORIDA REGIONAL WEATHER ROUNDUP
NATIONAL WEATHER SERVICE TAMPA BAY RUSKIN FL
200 PM EDT THU APR 24 2014

NOTE: "FAIR" INDICATES FEW OR NO CLOUDS BELOW 12,000 FEET WITH NO
SIGNIFICANT WEATHER AND/OR OBSTRUCTIONS TO VISIBILITY.


FLZ001>010-012>015-112-114-115-241900-
PANHANDLE FLORIDA

CITY           SKY/WX    TMP DP  RH WIND       PRES   REMARKS
PENSACOLA      FAIR      76  64  66 S10       29.98F
PENSACOLA NAS  PTSUNNY   74  66  76 S9        29.98F
MILTON NAS     FAIR      81  59  47 S10G17    29.97F
CRESTVIEW      SUNNY     83  58  42 S14G20    29.98F
DUKE FIELD     MOSUNNY   80  60  50 S12       29.97F
VALPARAISO     MOSUNNY   75  67  78 S12       29.98F
PANAMA CITY    FAIR      78  65  63 S13       29.98F
TYNDALL AFB    MOSUNNY   74  74  98 SW12      30.00F
APALACHICOLA   SUNNY     77  67  71 S12       30.01S

STATION/POSITION SKY/WX   TEMP    WIND        PRES    WAVE   SWELL
                          AIR SEA DIR/SP/G            HT/PER HT/PER
                          (F)     (DEG/KT/KT) (MB)    (FT/S) (FT/S)
30.1N   87.6W              70 72  180/  6/  8 1015.7F   1
29.2N   88.2W              71 75  150/  4/  6 1015.8F
28.8N   86.0W              71 71  110/  8/  8 1016.6F   1
PANAMA CITY BEAC           70 67  170/  7/  8 1015.7F
CAPE SAN BLAS    NOT AVBL
TOWER C                    69     170/  4/  5 1016.3F
28.5N   84.5W              70 72  110/  6/  6 1016.3F   1

$$
FLZ011-016>038-118-127-128-134-139-239-241900-
NORTH FLORIDA

CITY           SKY/WX    TMP DP  RH WIND       PRES   REMARKS
MARIANNA       PTSUNNY   82  57  42 SW8       29.96F
TALLAHASSEE    MOSUNNY   86  58  38 S9        29.96F
PERRY          PTSUNNY   81  66  61 SW12      29.99F
CROSS CITY       N/A     82  63  52 W7        29.98F
GAINESVILLE    MOSUNNY   82  60  47 S10       29.98F
MAYPORT NAS    PTSUNNY   76  65  68 E8        30.00F
JACKSONVILLE   PTSUNNY   82  66  58 NE7       29.97F
JAX NAS        MOSUNNY   86  57  37 VRB7      29.98F
JAX CRAIG      CLOUDY    80  66  62 E7        29.99F
JAX CECIL      MOSUNNY   82  63  51 VRB3      29.98F
FERNANDINA BEA FAIR      77  66  69 E8        29.99F
ST AUGUSTINE   MOSUNNY   79  67  66 SE14      30.00F HAZE

STATION/POSITION SKY/WX   TEMP    WIND        PRES    WAVE   SWELL
                          AIR SEA DIR/SP/G            HT/PER HT/PER
                          (F)     (DEG/KT/KT) (MB)    (FT/S) (FT/S)
SHELL POINT                71     170/  7/  8 1015.3F
KEATON BEACH               72     230/  9/ 10 1016.0F
CEDAR KEY                  73     230/  4/  7 1016.5F
FERNANDINA                 74 69  100/  7/ 10 1015.2F
30.7N   81.3W                 70                N/A     1/ 8
MAYPORT                    70 70   70/  9/ 11   N/A
31.4N   80.9W              70 70  110/  8/  8 1016.0F   1/ 8   2/ 8
ST AUGUSTINE               70     130/ 10/ 11 1016.3F

$$
FLZ040-043>046-052-053-057-058-063-144-241900-
INTERIOR CENTRAL FLORIDA

CITY           SKY/WX    TMP DP  RH WIND       PRES   REMARKS
OCALA          PTSUNNY   81  63  54 S5        30.00F
THE VILLAGES     N/A     82  64  54 SE5       29.99F
LEESBURG       SUNNY     82  65  56 VRB3      30.00F
SANFORD        MOSUNNY   85  64  49 S8        29.98F
ORLANDO EXEC   MOSUNNY   85  62  46 SW9       29.98F
ORLANDO INTL   MOSUNNY   87  63  44 S9        29.98F
KISSIMMEE      MOSUNNY   84  66  54 S7        29.99F
WINTER HAVEN     N/A    N/A N/A N/A MISG      29.99F
LAKELAND       PTSUNNY   82  59  44 S6        29.99F
BARTOW         MOSUNNY   82  63  51 VRB3      29.99F
OKEECHOBEE     SUNNY     84  64  51 S6        29.99F

$$
FLZ041-047-054-059-064-141-147-241900-
EAST CENTRAL FLORIDA

CITY           SKY/WX    TMP DP  RH WIND       PRES   REMARKS
ORMOND BEACH   MOSUNNY   81  64  57 E9        30.00F
DAYTONA BEACH  MOSUNNY   82  66  58 E9        30.00F
NEW SMYRNA BEA SUNNY     81  68  65 E10       30.01F
JFK SPACE CTR  SUNNY     84  64  50 S12       29.99F
TITUSVILLE     MOSUNNY   81  64  57 E16       29.99F
CAPE CANAVERAL SUNNY     82  66  58 SE12      29.99F
PATRICK AFB    SUNNY     80  71  72 E10       30.00F
MELBOURNE      MOSUNNY   82  65  56 E13       29.99F
VERO BEACH     SUNNY     83  69  62 E13       30.00F
FT PIERCE      SUNNY     83  66  56 SE16      29.99F
STUART         PTSUNNY   81  68  65 SE12G17   30.01F

STATION/POSITION SKY/WX   TEMP    WIND        PRES    WAVE   SWELL
                          AIR SEA DIR/SP/G            HT/PER HT/PER
                          (F)     (DEG/KT/KT) (MB)    (FT/S) (FT/S)
28.5N   80.2W              76 80  130/  6/  8 1016.7F
28.9N   78.5W              74 76  150/  8/ 10 1017.2F   2/ 8   2/ 8
TRIDENT PIER               80 75  120/  7/ 11 1015.4F
28.4N   80.5W                 76                N/A     1/ 8
27.6N   80.2W                 77                N/A     1/15

$$
FLZ050-056-061-142-242-148-248-149-249-151-251-155-255-
160-260-241900-
WEST CENTRAL FLORIDA

CITY           SKY/WX    TMP DP  RH WIND       PRES   REMARKS
CRYSTAL RIVER  FAIR      79  64  61 W9        30.00S
INVERNESS      MOCLDY    82  61  47 CALM      30.00F
BROOKSVILLE    MOSUNNY   82  61  48 CALM      30.00F
CLEARWATER     MOSUNNY   79  62  56 N7        30.00F
TAMPA INTL     MOSUNNY   79  64  60 SW9       30.00F
TAMPA EXEC     SUNNY     86  61  42 SW6       29.99F
PLANT CITY     PTSUNNY   84  63  48 CALM      30.01F
MACDILL AFB    SUNNY     82  69  64 W7        30.00F
PETER O KNIGHT SUNNY     82  64  54 SW6       30.00F
ST PETERSBURG  SUNNY     80  63  55 VRB7      29.99F
SARASOTA       SUNNY     78  65  63 W13       30.00F
VENICE         FAIR      75  66  73 W10       30.02F HAZE

STATION/POSITION SKY/WX   TEMP    WIND        PRES    WAVE   SWELL
                          AIR SEA DIR/SP/G            HT/PER HT/PER
                          (F)     (DEG/KT/KT) (MB)    (FT/S) (FT/S)
CEDAR KEY                  73     230/  4/  7 1016.5F
28.5N   84.5W              70 72  110/  6/  6 1016.3F   1
27.3N   84.3W                 74                N/A     1
CLEARWATER BEACH           72 72  260/  7/  8 1015.9F
MIDDLE TAMPA BAY           73     290/  9/ 11 1016.3F
VENICE                     72 74  250/  8/  9 1015.6F

$$
FLZ066-069-070-075>078-162-262-165-265-241900-
SOUTHWEST FLORIDA AND KEYS

CITY           SKY/WX    TMP DP  RH WIND       PRES   REMARKS
PUNTA GORDA    MOSUNNY   83  64  52 W10       30.01F
FT MYERS       SUNNY     84  59  42 SW10G17   29.99F
SOUTHWEST INTL SUNNY     82  60  47 CALM      29.99F
NAPLES         MOSUNNY   79  64  60 SW10      30.00F
MARATHON       PTSUNNY   82  69  64 VRB5      30.01F
KEY WEST NAS   PTSUNNY   80  69  69 SE8       30.01F
KEY WEST INTL  PTSUNNY   80  69  69 SE9       30.01F

STATION/POSITION SKY/WX   TEMP    WIND        PRES    WAVE   SWELL
                          AIR SEA DIR/SP/G            HT/PER HT/PER
                          (F)     (DEG/KT/KT) (MB)    (FT/S) (FT/S)
VENICE                     72 74  250/  8/  9 1015.6F
NAPLES                     74 77  250/  7/  8 1016.4F
26.0N   85.6W              76 80  130/ 12/ 14 1015.6F   2/ 6   2/ 6
DRY TORTUGAS     NOT AVBL
NW FL BAY                  77      CALM  /  1 1016.8F
SOMBRERO KEY               78     110/  3/  4 1016.9F
LONG KEY                   76 81   CALM  /  1 1017.0F
MOLASSES REEF              76 79  200/  3/  4 1016.1F

$$
FLZ067-068-071>074-168-172>174-241900-
SOUTHEAST FLORIDA

CITY           SKY/WX    TMP DP  RH WIND       PRES   REMARKS
W PALM BEACH   MOSUNNY   84  62  47 SE13G18   29.98F
FT LAUDER-EXEC MOSUNNY   84  65  52 E12       29.98F
FT LAUDERDALE  MOSUNNY   83  66  56 SE12      29.98F
POMPANO BEACH  MOSUNNY   82  68  62 SE12      30.00F
PEMBROKE PINES PTSUNNY   84  67  56 E9        30.00F
OPA LOCKA      MOSUNNY   86  63  45 VRB5      29.98F
MIAMI          MOSUNNY   83  65  54 VRB6      29.99F
WEST KENDALL   SUNNY     85  58  39 W8        29.99F
HOMESTEAD      SUNNY     87  62  43 SW8       29.99F

STATION/POSITION SKY/WX   TEMP    WIND        PRES    WAVE   SWELL
                          AIR SEA DIR/SP/G            HT/PER HT/PER
                          (F)     (DEG/KT/KT) (MB)    (FT/S) (FT/S)
PORT EVERGLADES            79     130/  7/ 10 1015.7
VIRGINIA KEY               77 80  150/  6/  9 1015.8F
LAKE WORTH                 77 80  130/  6/  7 1015.4F
FOWEY ROCKS                76 78  150/  7/  9 1015.8F
SETTLEMENT POINT           78     230/  6/  7 1016.6F

$$




USA.gov is the U.S. government's official web portal to all federal, state and local government web resources and services.